Back to catalog

STARLINK-5240

AliveCommunicationsVLEO
NORAD 54187·PAYLOAD·🇺🇸 United States

Launched Oct 28, 2022 from Vandenberg Space Force Base

Loading…

Next Passes (next 24 hours)

TLE

FreshSource: CelesTrak SupGP

Epoch: Sep 14, 2026, 21:10 UTC

1 54187C 22141AG  26257.88243056  .00025458  00000+0  75203-3 0  2573
2 54187  53.1576 220.1186 0001311  96.9550 121.9866 15.34383607    18

Track STARLINK-5240 in real time with AllMySat

Download on the App Store